[[{"header":{"parameterUnit":"m.s-1","parameterCategory":1,"la1":30.2992,"la2":30.254,"lo1":-89.0895,"lo2":-89.0443,"dy":0.0025,"dx":0.0025,"nx":19,"ny":19,"refTime":"2026-05-08T09:00:00:Z","depth":0,"parameterNumber":2,"parameterNumberName":"U-component_of_WINDS"},"data":[0,0,0,-2.3174,-2.318,-2.3451,-2.3452,-2.3834,-2.3838,0,0,0,0,0,0,0,0,0,0,0,-2.3104,-2.3106,-2.3173,-2.318,-2.3451,-2.3452,-2.3833,-2.3838,0,0,0,0,0,0,0,0,0,0,0,-2.3102,-2.3106,-2.3109,-2.3181,-2.3451,-2.3452,-2.3833,-2.3618,0,0,0,0,0,0,0,0,0,0,-2.335,-2.3292,-2.3105,-2.3109,-2.3183,-2.3451,-2.3453,-2.3607,-2.3632,-2.3722,0,-2.3796,0,-2.3822,-2.3864,-2.3866,0,0,0,-2.3176,-2.3272,-2.3335,-2.311,-2.3185,-2.345,-2.3328,-2.362,-2.3648,-2.3755,-2.3802,-2.3815,-2.3829,-2.3867,-2.3869,-2.4384,-2.4386,0,0,-2.3161,-2.3161,-2.3316,-2.3353,-2.3301,-2.3319,-2.3336,-2.3637,-2.3692,-2.3803,-2.3824,-2.3835,-2.387,-2.3873,-2.4381,-2.4384,0,0,0,-2.3121,-2.3151,-2.3205,-2.3338,-2.3383,-2.3327,-2.3347,-2.3679,-2.3696,-2.3828,-2.3839,-2.3872,-2.3877,-2.4378,-2.4382,-2.4507,0,0,0,-2.3111,-2.3127,-2.3199,-2.3202,-2.3378,-2.3532,-2.3383,-2.3675,-2.3709,-2.3838,-2.3872,-2.3881,-2.4375,-2.4381,-2.4497,-2.4567,0,0,0,-2.3083,-2.3124,-2.3165,-2.3202,-2.3317,-2.3527,-2.3562,-2.3682,-2.3717,-2.3866,-2.3882,-2.4373,-2.438,-2.4488,-2.4553,-2.4701,0,0,0,-2.3055,-2.3278,-2.3167,-2.3422,-2.3314,-2.3599,-2.356,-2.3775,-2.3917,-2.3874,-2.4376,-2.4382,-2.4486,-2.4544,-2.4692,-2.4824,-2.4878,0,0,-2.3337,-2.3312,-2.3462,-2.3371,-2.3673,-2.3558,-2.3884,-2.402,-2.4041,-2.4271,-2.4284,-2.45,-2.4552,-2.4699,-2.5187,-2.523,0,0,0,-2.3552,-2.3659,-2.374,-2.387,-2.3973,-2.4069,-2.4153,-2.4204,-2.4398,-2.4155,-2.4594,-2.4626,-2.4712,-2.4776,-2.4812,-2.4887,-2.4411,-2.441,-2.441,-2.3953,-2.3958,-2.4207,-2.4245,-2.4374,-2.4456,-2.4563,-2.4648,-2.4623,-2.4727,-2.4795,-2.5089,-2.5163,-2.5191,-2.5269,-2.4866,-2.4867,-2.4867,-2.4868,-2.4366,-2.4519,-2.4473,-2.4697,-2.4706,-2.4899,-2.4991,-2.4965,-2.5152,-2.5038,-2.5115,-2.499,-2.5238,-2.5306,-2.4877,-2.4875,-2.4874,-2.4873,-2.4873,-2.4629,-2.4702,-2.4754,-2.4942,-2.5089,-2.5125,-2.5302,-2.5307,-2.5313,-2.5389,-2.5462,-2.546,-2.5459,-2.5423,-2.5424,-2.5425,-2.5426,-2.5427,-2.5427,-2.488,-2.4934,-2.5077,-2.5203,-2.5287,-2.5399,-2.5486,-2.5573,-2.5671,-2.5661,-2.5661,-2.5627,-2.5259,-2.5166,-2.5443,-2.544,-2.5438,-2.5437,-2.5436,-2.5295,-2.5201,-2.5423,-2.5506,-2.5656,-2.5802,-2.5803,-2.5979,-2.6052,-2.6141,-2.6091,-2.5817,-2.5796,-2.5767,-2.569,-2.6087,-2.6087,-2.6087,-2.6087,-2.5516,-2.5503,-2.5729,-2.5862,-2.5995,-2.6017,-2.6277,-2.6349,-2.6411,-2.6458,-2.6402,-2.6301,-2.6271,-2.6267,-2.6227,-2.6156,-2.6662,-2.6662,-2.6663,-2.5772,-2.5771,-2.5986,-2.6034,-2.6152,-2.6256,-2.65,-2.6664,-2.6716,-2.6686,-2.6496,-2.6472,-2.6308,-2.6254,-2.622,-2.6158,-2.6027,0,0]},{"header":{"parameterUnit":"m.s-1","parameterCategory":1,"la1":30.2992,"la2":30.254,"lo1":-89.0895,"lo2":-89.0443,"dy":0.0025,"dx":0.0025,"nx":19,"ny":19,"refTime":"2026-05-08T09:00:00:Z","depth":0,"parameterNumber":3,"parameterNumberName":"V-component_of_WINDS"},"data":[0,0,0,0.8821,0.8826,0.9091,0.9092,0.9421,0.9424,0,0,0,0,0,0,0,0,0,0,0,0.8737,0.8739,0.882,0.8827,0.909,0.9092,0.9421,0.9424,0,0,0,0,0,0,0,0,0,0,0,0.8736,0.8739,0.8741,0.8828,0.909,0.9092,0.942,0.9224,0,0,0,0,0,0,0,0,0,0,0.8969,0.8886,0.8738,0.8742,0.8829,0.909,0.9092,0.9215,0.9236,0.9298,0,0.9352,0,0.9393,0.9446,0.9447,0,0,0,0.8831,0.8868,0.8945,0.8742,0.8832,0.909,0.8973,0.9227,0.9251,0.9327,0.9356,0.9369,0.9399,0.9448,0.9449,0.9795,0.9796,0,0,0.8816,0.8782,0.8928,0.896,0.8918,0.8964,0.8981,0.9242,0.9272,0.9358,0.9377,0.9404,0.945,0.9452,0.9793,0.9795,0,0,0,0.8772,0.8772,0.8842,0.8946,0.8994,0.8972,0.8991,0.926,0.9286,0.938,0.9408,0.9452,0.9456,0.9792,0.9794,0.9831,0,0,0,0.8763,0.8746,0.8835,0.8816,0.8989,0.913,0.9003,0.9268,0.9298,0.9406,0.9452,0.9459,0.979,0.9793,0.9826,0.9854,0,0,0,0.8722,0.8741,0.8777,0.8814,0.8926,0.9127,0.9168,0.9275,0.9315,0.9447,0.946,0.9789,0.9792,0.9823,0.9847,0.9935,0,0,0,0.8668,0.8806,0.8777,0.8942,0.8924,0.9148,0.9166,0.9335,0.9453,0.9454,0.979,0.9794,0.9821,0.9844,0.993,1.0002,1.0028,0,0,0.8822,0.8823,0.8923,0.8905,0.9125,0.911,0.9337,0.9477,0.9521,0.9701,0.971,0.9828,0.9847,0.9934,1.019,1.0211,0,0,0,0.896,0.9031,0.9097,0.9208,0.9319,0.9417,0.9526,0.9579,0.9733,0.9606,0.9884,0.9897,0.9949,0.9985,1.0003,1.005,0.9809,0.9808,0.9808,0.9128,0.9178,0.9347,0.9429,0.9536,0.9649,0.9741,0.9831,0.9849,0.9914,0.9968,1.0117,1.0157,1.0171,1.022,1.001,1.001,1.001,1.001,0.9358,0.9467,0.949,0.9662,0.9714,0.986,0.9975,0.9983,1.0127,1.008,1.0129,1.0073,1.0192,1.0238,1.0014,1.0013,1.0013,1.0012,1.0012,0.9473,0.9534,0.9596,0.9763,0.9886,0.9966,1.0103,1.0146,1.0187,1.0236,1.0297,1.0297,1.0302,1.0262,1.0263,1.0263,1.0264,1.0264,1.0265,0.9567,0.9636,0.9746,0.9878,0.9956,1.0064,1.0181,1.0259,1.0356,1.0377,1.0378,1.039,1.0195,1.0144,1.0273,1.0271,1.027,1.027,1.0269,0.978,0.974,0.9909,0.9988,1.0147,1.0267,1.0322,1.0478,1.0549,1.0616,1.0619,1.0467,1.0471,1.0457,1.0416,1.0607,1.0607,1.0607,1.0607,0.9877,0.9884,1.0068,1.0191,1.0316,1.0383,1.0576,1.0669,1.0758,1.0806,1.0785,1.0734,1.0718,1.0731,1.0712,1.0674,1.0926,1.0927,1.0927,1.0011,1.0033,1.0187,1.0275,1.0403,1.0513,1.0695,1.0836,1.0929,1.0941,1.0844,1.0831,1.075,1.072,1.0727,1.0696,1.0627,0,0]}]]